Location: Hysolar-Haus
(48.7436°N, 9.0965°E)
Time: 12:29:10
(UTC+00:00)

Explorer 7 - Pass Details

Date: 21 November 2019
Orbit: 485 x 679 km, 50.3° (Epoch: 15 December)

Event Time Altitude Azimuth Distance (km) Brightness Sun altitude
Exits shadow 04:22:57 36° 189° (S) 861 7.7 -22.3°
Drops below altitude 10° 04:26:01 10° 144° (SE) 1,744 9.9 -21.8°
Sets 04:28:14 0° 136° (SE) 2,601 11.0 -21.5°
